Location: Borovka
(49.7741°N, 14.5280°E)
Time: 04:31:09
(UTC+00:00)

ATLAS 2AS CENTAUR R/B - Visible Passes

Search period start: 19 February 2026 00:00
Search period end: 01 March 2026 00:00
Orbit: 1050 x 1161 km, 63.7° (Epoch: 18 February)

Date Brightness Start Highest point End Pass type
(mag) Time Alt. Az. Time Alt. Az. Time Alt. Az.
19 Feb 4.1 17:09:49 10° NW 17:15:21 25° N 17:20:50 10° NE visible
19 Feb 3.3 19:01:51 10° NW 19:08:08 38° NNE 19:08:52 37° NE visible
19 Feb 4.1 20:52:51 10° NW 20:56:18 33° NW 20:56:18 33° NW visible
20 Feb 3.7 18:16:39 10° NW 18:22:38 31° NNE 18:25:23 24° ENE visible
20 Feb 3.2 20:07:45 10° NW 20:12:48 52° NNW 20:12:48 52° NNW visible
20 Feb 5.1 21:59:16 10° WNW 22:00:14 14° WNW 22:00:14 14° WNW visible
21 Feb 3.9 17:31:19 10° NW 17:37:03 27° NNE 17:41:55 13° ENE visible
21 Feb 2.8 19:22:41 10° NW 19:29:20 56° NE 19:29:20 56° NE visible
21 Feb 4.4 21:13:50 10° NW 21:16:46 26° WNW 21:16:46 26° WNW visible
22 Feb 3.2 18:37:35 10° NW 18:44:03 43° NNE 18:45:55 36° ENE visible
22 Feb 3.5 20:28:35 10° NW 20:33:21 46° WNW 20:33:21 46° WNW visible
23 Feb 3.5 17:52:26 10° NW 17:58:35 35° NNE 18:02:31 20° ENE visible
23 Feb 2.6 19:43:28 10° NW 19:49:57 82° NW 19:49:57 82° NW visible
23 Feb 4.8 21:35:20 10° WNW 21:37:24 17° WNW 21:37:24 17° WNW visible
24 Feb 3.7 17:07:12 10° NW 17:13:03 29° NNE 17:18:52 10° ENE visible
24 Feb 2.6 18:58:23 10° NW 19:05:09 66° NE 19:06:37 53° E visible
24 Feb 4.1 20:49:42 10° NW 20:54:03 31° W 20:54:03 31° W visible
25 Feb 3.0 18:13:19 10° NW 18:19:54 50° NE 18:23:19 28° E visible
25 Feb 3.1 20:04:22 10° NW 20:10:45 51° WSW 20:10:45 51° WSW visible
26 Feb 3.3 17:28:12 10° NW 17:34:32 39° NNE 17:40:05 13° E visible
26 Feb 2.7 19:19:12 10° NW 19:25:58 75° SW 19:27:32 55° SSE visible
26 Feb 4.7 21:11:36 10° WNW 21:14:58 17° W 21:14:58 17° W visible
27 Feb 2.6 18:34:06 10° NW 18:40:55 79° NE 18:44:22 32° SE visible
27 Feb 4.1 20:25:40 10° WNW 20:31:10 27° WSW 20:31:49 27° WSW visible
28 Feb 2.8 17:49:02 10° NW 17:55:44 58° NE 18:01:18 15° ESE visible
28 Feb 3.6 19:40:12 10° NW 19:46:27 41° WSW 19:48:45 32° SSW visible
